GW2489 Weather Reports


Display with metric or nautical units.
time (UTC)temp
F
wind
direction
speed
MPH
gust
MPH
rain 1hr
in
rain 24hr
in
rain mn
in
humidity
%
barometer
mb
20260505230537 32 12 0.0 4.0 0.00 0.32 0.20 92 1013.0
20260505230050 32 0 0.0 10.0 0.00 0.32 0.20 92 1013.1
20260505225538 32 360 0.0 10.0 0.00 0.32 0.20 92 1013.0
20260505225038 32 340 1.0 10.0 0.01 0.32 0.20 92 1013.2
20260505224550 32 0 2.0 9.0 0.01 0.32 0.20 92 1013.3
20260505224037 33 352 1.0 5.0 0.01 0.32 0.20 92 1012.9
20260505223537 33 12 1.0 4.0 0.01 0.32 0.20 92 1012.9
20260505223048 33 11 0.0 4.0 0.02 0.32 0.20 92 1012.7
20260505222537 33 0 0.0 4.0 0.02 0.32 0.20 92 1012.4
20260505222042 33 0 0.0 4.0 0.02 0.32 0.20 92 1012.3
20260505221551 34 352 0.0 4.0 0.03 0.32 0.20 92 1012.2
20260505221036 34 0 1.0 5.0 0.03 0.32 0.20 92 1012.7
20260505220534 34 321 0.0 5.0 0.03 0.32 0.20 92 1012.8
20260505215537 34 0 1.0 5.0 0.04 0.32 0.20 91 1012.6
20260505215035 34 0 1.0 5.0 0.03 0.31 0.19 91 1012.1
20260505214559 34 0 0.0 5.0 0.04 0.31 0.19 91 1012.0
20260505214037 35 31 0.0 3.0 0.04 0.31 0.19 91 1012.1
20260505213535 34 0 0.0 5.0 0.04 0.31 0.19 91 1012.1
20260505213048 34 336 1.0 11.0 0.03 0.30 0.18 90 1012.3
20260505212536 35 15 1.0 11.0 0.03 0.30 0.18 89 1012.2
20260505212035 37 5 0.0 9.0 0.03 0.30 0.18 91 1012.3
20260505211608 37 0 0.0 5.0 0.02 0.29 0.17 91 1012.4
20260505211038 37 0 0.0 4.0 0.03 0.29 0.17 91 1012.4
20260505210534 37 11 0.0 4.0 0.03 0.29 0.17 91 1012.3
20260505210047 37 0 0.0 2.0 0.03 0.29 0.17 91 1012.3
20260505205535 38 0 0.0 2.0 0.02 0.28 0.16 91 1012.2
20260505205036 38 0 0.0 3.0 0.02 0.28 0.16 91 1012.4
20260505204558 38 0 0.0 3.0 0.02 0.27 0.15 91 1012.5
20260505204036 38 0 0.0 3.0 0.02 0.27 0.15 92 1012.7
20260505203535 37 0 0.0 3.0 0.02 0.27 0.15 91 1012.7
20260505203042 37 0 0.0 4.0 0.02 0.27 0.15 91 1012.8
20260505202538 37 13 0.0 4.0 0.02 0.27 0.15 91 1013.0
20260505202038 37 352 0.0 3.0 0.02 0.27 0.15 91 1013.3
20260505201550 37 22 1.0 3.0 0.02 0.27 0.15 91 1013.1
20260505201037 37 0 0.0 4.0 0.02 0.26 0.14 91 1013.3
20260505200534 37 0 0.0 4.0 0.02 0.26 0.14 91 1013.3
20260505200048 37 0 0.0 3.0 0.02 0.26 0.14 90 1013.3
20260505195534 37 0 0.0 3.0 0.02 0.26 0.14 90 1013.3
20260505195036 37 0 0.0 2.0 0.02 0.26 0.14 90 1013.2
20260505194547 37 0 0.0 0.0 0.01 0.25 0.13 90 1013.3
20260505194035 38 0 0.0 0.0 0.01 0.25 0.13 90 1013.2
20260505193534 38 0 0.0 3.0 0.01 0.25 0.13 90 1013.3
20260505193045 38 0 0.0 3.0 0.01 0.25 0.13 90 1013.3
20260505192534 38 0 0.0 0.0 0.01 0.25 0.13 90 1013.3
20260505192034 38 0 0.0 0.0 0.01 0.25 0.13 90 1013.2
20260505191542 38 0 0.0 1.0 0.01 0.25 0.13 89 1013.1
20260505191034 38 0 0.0 1.0 0.00 0.24 0.12 89 1013.1
20260505190537 38 0 0.0 0.0 0.00 0.24 0.12 90 1013.2
20260505190048 38 0 0.0 0.0 0.00 0.24 0.12 89 1013.1
20260505185539 38 0 0.0 0.0 0.00 0.24 0.12 90 1013.1
20260505185035 38 0 0.0 0.0 0.00 0.24 0.12 90 1013.4
20260505184549 38 0 0.0 0.0 0.00 0.24 0.12 90 1013.3
20260505184037 38 0 0.0 0.0 0.00 0.24 0.12 90 1013.5
20260505183537 38 0 0.0 0.0 0.00 0.24 0.12 90 1013.8
20260505183045 38 0 0.0 0.0 0.00 0.24 0.12 90 1013.8
20260505182534 37 0 0.0 0.0 0.00 0.24 0.12 90 1013.8
20260505182036 37 0 0.0 0.0 0.00 0.24 0.12 90 1013.9
20260505181606 37 0 0.0 0.0 0.00 0.24 0.12 90 1013.8
20260505181055 37 0 0.0 0.0 0.00 0.24 0.12 90 1014.0
20260505180534 38 0 0.0 0.0 0.00 0.24 0.12 91 1014.0
20260505180059 38 0 0.0 0.0 0.00 0.24 0.12 91 1014.0
20260505175535 37 0 0.0 1.0 0.00 0.24 0.12 91 1014.0
20260505175036 37 0 0.0 2.0 0.00 0.24 0.12 91 1014.0
20260505174545 37 0 0.0 2.0 0.00 0.24 0.12 91 1014.1
20260505174034 37 0 0.0 3.0 0.00 0.24 0.12 91 1014.3
20260505173536 37 0 0.0 3.0 0.00 0.24 0.12 91 1014.3
20260505173041 37 0 0.0 1.0 0.00 0.24 0.12 90 1014.3
20260505172533 37 0 0.0 1.0 0.00 0.24 0.12 91 1014.4
20260505172034 36 0 0.0 0.0 0.00 0.24 0.12 91 1014.5
20260505171551 36 0 0.0 0.0 0.01 0.24 0.12 90 1014.5
20260505171038 37 0 0.0 1.0 0.01 0.24 0.12 91 1014.5
20260505170538 37 0 0.0 1.0 0.01 0.24 0.12 92 1014.6
20260505170044 37 0 0.0 1.0 0.01 0.24 0.12 92 1014.5
20260505165537 37 0 0.0 0.0 0.01 0.24 0.12 92 1014.5
20260505165034 37 0 0.0 0.0 0.01 0.24 0.12 92 1014.5
20260505164547 36 0 0.0 0.0 0.01 0.24 0.12 92 1014.5
20260505164033 36 0 0.0 0.0 0.01 0.24 0.12 92 1014.5
20260505163537 36 0 0.0 0.0 0.01 0.24 0.12 92 1014.5
20260505163046 36 0 0.0 0.0 0.01 0.24 0.12 92 1014.6
20260505162538 36 0 0.0 1.0 0.01 0.24 0.12 92 1014.7
20260505162034 36 0 0.0 1.0 0.01 0.24 0.12 92 1014.7
20260505161541 36 0 0.0 1.0 0.00 0.23 0.11 92 1014.7
20260505161034 36 0 0.0 2.0 0.00 0.23 0.11 93 1014.7
20260505160535 36 0 0.0 3.0 0.00 0.23 0.11 93 1014.7
20260505153047 35 0 0.0 0.0 0.00 0.23 0.11 93 1015.0
20260505152537 35 0 0.0 0.0 0.00 0.23 0.11 93 1014.9
20260505152038 35 0 0.0 0.0 0.00 0.23 0.11 93 1015.0
20260505151545 35 0 0.0 2.0 0.00 0.23 0.11 93 1015.1
20260505151034 35 0 0.0 2.0 0.00 0.23 0.11 93 1015.0
20260505150537 35 0 0.0 1.0 0.01 0.23 0.11 93 1015.0
20260505140537 33 0 0.0 2.0 0.02 0.22 0.10 93 1015.1
20260505125037 33 0 0.0 3.0 0.02 0.20 0.08 92 1014.3
20260505124550 33 0 0.0 4.0 0.02 0.20 0.08 92 1014.1
20260505124040 33 0 0.0 4.0 0.02 0.20 0.08 92 1014.1
20260505123538 33 0 0.0 3.0 0.03 0.20 0.08 92 1014.1
20260505123055 33 341 0.0 2.0 0.03 0.20 0.08 92 1013.9
20260505122538 34 0 0.0 3.0 0.02 0.19 0.07 92 1014.0
20260505122038 34 0 0.0 3.0 0.03 0.19 0.07 92 1014.0
20260505121550 34 329 0.0 3.0 0.03 0.19 0.07 92 1014.1
20260505121038 34 0 0.0 4.0 0.03 0.19 0.07 91 1014.0
20260505120539 34 0 0.0 4.0 0.02 0.18 0.06 91 1013.8
20260505120110 34 24 0.0 4.0 0.03 0.18 0.06 91 1013.9
20260505115537 34 0 0.0 2.0 0.03 0.18 0.06 91 1013.7
20260505115036 35 0 0.0 3.0 0.03 0.18 0.06 91 1013.9
20260505114548 35 0 0.0 3.0 0.03 0.18 0.06 91 1013.7
20260505114041 35 0 0.0 3.0 0.03 0.18 0.06 91 1013.8
20260505113542 35 0 0.0 2.0 0.02 0.17 0.05 91 1013.9
20260505113050 35 0 0.0 3.0 0.02 0.17 0.05 90 1013.9
20260505112537 36 0 0.0 3.0 0.02 0.17 0.05 90 1013.7
20260505112037 36 5 1.0 9.0 0.02 0.16 0.04 90 1013.7
20260505111547 36 360 1.0 9.0 0.02 0.16 0.04 90 1013.6
20260505111038 36 360 1.0 9.0 0.02 0.16 0.04 89 1013.6
20260505110538 37 5 1.0 9.0 0.01 0.15 0.03 89 1013.6
20260505110107 38 32 2.0 8.0 0.02 0.15 0.03 89 1013.5
20260505102036 39 0 1.0 10.0 0.02 0.14 0.02 90 1012.5
20260505101547 39 0 1.0 8.0 0.02 0.14 0.02 90 1012.5
20260505101034 39 41 0.0 6.0 0.02 0.14 0.02 90 1012.6
20260505100534 39 10 0.0 8.0 0.02 0.14 0.02 90 1012.5
20260505100043 39 5 0.0 8.0 0.01 0.13 0.01 90 1012.5
20260505095534 39 259 0.0 5.0 0.01 0.13 0.01 90 1012.2
20260505095035 40 5 0.0 5.0 0.01 0.13 0.01 91 1012.3
20260505094543 40 360 1.0 5.0 0.01 0.13 0.01 91 1012.3
20260505094034 40 17 0.0 5.0 0.01 0.13 0.01 91 1012.2
20260505093534 40 13 0.0 7.0 0.01 0.13 0.01 91 1012.1
20260505093042 40 0 0.0 7.0 0.00 0.12 0.00 90 1012.2
20260505092534 41 352 1.0 6.0 0.00 0.12 0.00 91 1012.2
20260505092035 41 352 1.0 8.0 0.00 0.12 0.00 91 1012.2
20260505091554 41 5 1.0 10.0 0.00 0.12 0.00 90 1012.1
20260505091040 41 338 0.0 11.0 0.00 0.12 0.00 90 1011.9
20260505090533 41 5 2.0 18.0 0.00 0.12 0.00 90 1011.9
20260505090041 41 336 3.0 18.0 0.00 0.12 0.00 90 1011.8
20260505085534 41 0 0.0 10.0 0.00 0.12 0.00 90 1011.8
20260505085037 41 338 2.0 10.0 0.00 0.12 0.00 90 1012.0
20260505084556 41 0 1.0 5.0 0.00 0.12 0.00 90 1012.0
20260505084035 41 0 0.0 6.0 0.00 0.12 0.00 89 1011.9
20260505083538 42 0 0.0 6.0 0.00 0.12 0.00 89 1011.9
20260505083055 42 338 0.0 5.0 0.00 0.12 0.00 88 1012.0
20260505082534 42 346 0.0 4.0 0.00 0.12 0.00 88 1012.0
20260505082037 42 0 1.0 6.0 0.00 0.12 0.00 88 1012.0
20260505081542 42 0 1.0 6.0 0.00 0.12 0.00 87 1012.2
20260505081035 43 351 1.0 6.0 0.00 0.12 0.00 87 1012.3
20260505080533 44 341 0.0 6.0 0.00 0.12 0.00 86 1012.2
20260505080041 45 0 1.0 6.0 0.00 0.12 0.00 86 1012.2
20260505075538 46 0 0.0 5.0 0.00 0.12 0.00 87 1011.9
20260505075036 46 327 0.0 5.0 0.00 0.12 0.00 87 1012.0
20260505074540 46 0 0.0 1.0 0.00 0.12 0.00 87 1012.1
20260505074036 46 252 0.0 0.0 0.00 0.12 0.00 87 1012.1
20260505073537 46 0 0.0 0.0 0.00 0.12 0.00 87 1012.1
20260505073049 46 0 0.0 0.0 0.00 0.12 0.00 87 1012.1
20260505072539 46 0 0.0 0.0 0.00 0.12 0.00 87 1011.9
20260505072038 46 0 0.0 0.0 0.00 0.12 0.00 88 1011.8
20260505071542 46 0 0.0 0.0 0.00 0.12 0.00 88 1011.8
20260505071038 46 0 0.0 1.0 0.00 0.12 0.00 88 1012.0
20260505070538 46 0 0.0 2.0 0.00 0.12 0.00 88 1011.9
20260505070050 46 0 0.0 2.0 0.00 0.12 0.00 88 1011.8
20260505065538 46 0 0.0 0.0 0.00 0.12 0.00 88 1011.8
20260505065036 46 0 0.0 2.0 0.00 0.12 0.00 88 1011.7
20260505064603 45 0 0.0 2.0 0.00 0.12 0.00 88 1011.9
20260505064037 45 0 0.0 2.0 0.00 0.12 0.00 88 1011.9
20260505063535 46 0 0.0 0.0 0.00 0.12 0.00 88 1011.9
20260505063048 46 0 0.0 0.0 0.00 0.12 0.00 88 1011.9
20260505062537 46 0 0.0 1.0 0.00 0.12 0.00 88 1011.9
20260505062038 46 0 0.0 1.0 0.00 0.12 0.00 88 1011.8
20260505061539 45 0 0.0 0.0 0.00 0.12 0.00 89 1011.9
20260505061041 45 0 0.0 0.0 0.00 0.12 0.00 89 1011.8
20260505060537 45 0 0.0 1.0 0.00 0.12 0.00 89 1011.9
20260505060038 45 0 0.0 1.0 0.00 0.12 0.00 89 1011.7
20260505055540 45 0 0.0 1.0 0.00 0.12 0.12 89 1011.8
20260505055038 45 0 0.0 0.0 0.00 0.12 0.12 88 1011.9
20260505054550 45 0 0.0 0.0 0.00 0.12 0.12 88 1012.0
20260505054037 44 0 0.0 0.0 0.00 0.12 0.12 88 1012.0
20260505053538 44 0 0.0 0.0 0.00 0.12 0.12 88 1011.5
20260505053043 44 0 0.0 0.0 0.00 0.12 0.12 87 1011.5
20260505052541 44 0 0.0 0.0 0.00 0.12 0.12 88 1011.5
20260505052037 44 0 0.0 0.0 0.00 0.12 0.12 87 1011.5
20260505051549 44 0 0.0 0.0 0.00 0.12 0.12 87 1011.5
20260505051036 44 0 0.0 0.0 0.00 0.12 0.12 87 1011.6
20260505050536 44 0 0.0 0.0 0.01 0.12 0.12 87 1011.7
20260505041542 46 0 0.0 0.0 0.05 0.12 0.12 86 1012.1
20260505041038 46 0 0.0 0.0 0.05 0.12 0.12 86 1012.2
20260505040541 46 0 0.0 0.0 0.05 0.11 0.11 86 1012.3
20260505040059 46 0 0.0 0.0 0.06 0.11 0.11 86 1012.1
20260505035537 46 0 0.0 0.0 0.08 0.11 0.11 86 1012.1
20260505035036 46 0 0.0 0.0 0.10 0.11 0.11 85 1011.9
20260505034605 46 0 0.0 1.0 0.11 0.11 0.11 84 1012.1
20260505034037 47 0 0.0 1.0 0.10 0.10 0.10 84 1012.0
20260505033538 47 0 0.0 1.0 0.09 0.09 0.09 83 1012.1
20260505033045 47 0 0.0 2.0 0.09 0.09 0.09 82 1012.2
20260505032538 48 0 0.0 3.0 0.08 0.08 0.08 82 1012.1
20260505032037 48 0 0.0 3.0 0.08 0.08 0.08 82 1012.1
20260505031545 48 0 0.0 3.0 0.07 0.07 0.07 82 1012.0
20260505031038 48 0 0.0 11.0 0.07 0.07 0.07 81 1011.8
20260505030541 48 0 2.0 11.0 0.06 0.06 0.06 80 1012.0
20260505030047 48 312 1.0 11.0 0.05 0.05 0.05 83 1011.7
20260505025538 48 0 2.0 11.0 0.03 0.03 0.03 82 1011.6
20260505025038 49 0 0.0 5.0 0.01 0.01 0.01 81 1011.3
20260505024559 49 0 0.0 5.0 0.00 0.00 0.00 79 1011.3
20260505024037 49 340 0.0 5.0 0.00 0.00 0.00 77 1011.1
20260505023539 50 337 1.0 5.0 0.00 0.00 0.00 75 1011.1
20260505023048 50 348 0.0 3.0 0.00 0.00 0.00 73 1010.9
20260505022537 50 344 0.0 4.0 0.00 0.00 0.00 73 1010.8
20260505022037 50 319 0.0 4.0 0.00 0.00 0.00 73 1010.8
20260505021545 50 360 0.0 4.0 0.00 0.00 0.00 72 1010.7
20260505021037 50 343 0.0 4.0 0.00 0.00 0.00 73 1010.8
20260505020538 50 352 0.0 4.0 0.00 0.00 0.00 72 1010.7
20260505020103 50 0 0.0 3.0 0.00 0.00 0.00 72 1010.7
20260505015537 50 0 0.0 6.0 0.00 0.00 0.00 71 1010.9
20260505015037 51 360 1.0 8.0 0.00 0.00 0.00 69 1010.9
20260505014544 51 0 1.0 11.0 0.00 0.00 0.00 67 1010.9
20260505014037 52 360 1.0 11.0 0.00 0.00 0.00 65 1010.7
20260505013537 54 352 1.0 6.0 0.00 0.00 0.00 60 1010.4
20260505013043 55 0 0.0 1.0 0.00 0.00 0.00 53 1010.4
20260505012540 56 0 0.0 2.0 0.00 0.00 0.00 53 1010.6
20260505012038 56 0 0.0 3.0 0.00 0.00 0.00 53 1010.6
20260505011540 56 0 0.0 4.0 0.00 0.00 0.00 54 1010.6
20260505011033 56 0 0.0 4.0 0.00 0.00 0.00 52 1010.6
20260505010535 57 0 0.0 3.0 0.00 0.00 0.00 50 1010.6
20260505010057 57 0 0.0 3.0 0.00 0.00 0.00 49 1010.4
20260505005536 57 0 0.0 3.0 0.00 0.00 0.00 48 1010.3
20260505005034 57 0 0.0 1.0 0.00 0.00 0.00 48 1010.1
20260505004601 57 0 0.0 1.0 0.00 0.00 0.00 47 1010.2
20260505004036 58 0 0.0 1.0 0.00 0.00 0.00 47 1010.2
20260505003537 58 0 0.0 1.0 0.00 0.00 0.00 46 1010.2
20260505003052 58 0 0.0 1.0 0.00 0.00 0.00 46 1010.2
20260505002533 58 0 0.0 1.0 0.00 0.00 0.00 45 1009.8
20260505002037 58 0 0.0 1.0 0.00 0.00 0.00 45 1010.0
20260505001545 58 0 0.0 1.0 0.00 0.00 0.00 44 1009.7
20260505001037 58 0 0.0 3.0 0.00 0.00 0.00 44 1009.7
20260505000535 58 0 0.0 3.0 0.00 0.00 0.00 44 1009.7
20260505000044 58 329 0.0 2.0 0.00 0.00 0.00 44 1009.6
20260504235535 58 313 0.0 4.0 0.00 0.00 0.00 44 1009.5
20260504235034 58 0 0.0 4.0 0.00 0.00 0.00 45 1009.5
20260504234541 58 0 1.0 6.0 0.00 0.00 0.00 45 1009.6
20260504234035 58 22 0.0 6.0 0.00 0.00 0.00 46 1009.4
20260504233533 59 0 0.0 3.0 0.00 0.00 0.00 45 1009.4
20260504233039 59 0 0.0 3.0 0.00 0.00 0.00 41 1009.3
20260504232536 59 20 0.0 3.0 0.00 0.00 0.00 43 1009.4
20260504232035 59 0 0.0 4.0 0.00 0.00 0.00 43 1009.4
20260504231618 59 0 1.0 6.0 0.00 0.00 0.00 44 1009.5
20260504231034 59 360 0.0 10.0 0.00 0.00 0.00 45 1009.5